Regional Weather Roundup
Issued by NWS

Home | Current Version | Previous Version | Text Only | Print | Product List | Glossary On
Versions: 1 2 3 4 5 6 7 8 9 10 11 12 13 14 15 16 17 18 19 20 21 22 23 24 25 26 27 28 29 30 31 32 33 34 35 36 37 38 39 40 41 42 43 44 45 46 47 48 49 50
000
ASUS43 KTOP 280959
RWRKS

WEATHER ROUNDUP FOR KANSAS
NATIONAL WEATHER SERVICE GOODLAND KS
400 AM CST SAT FEB 28 2015

NOTE:  "FAIR" INDICATES FEW OR NO CLOUDS BELOW 12,000 FEET WITH NO
SIGNIFICANT WEATHER AND/OR OBSTRUCTIONS TO VISIBILITY.

KSZ001>006-013>018-027>032-041>047-281100-
NORTHWEST KANSAS

CITY           SKY/WX    TMP DP  RH WIND       PRES   REMARKS
GOODLAND       LGT SNOW  11   8  88 S13       30.09F FOG     WCI  -4
HAYS           CLOUDY    14   1  57 S12       30.31F WCI   0
HILL CITY      CLOUDY    13   7  77 S9        30.29F
RUSSELL        CLOUDY    13  10  88 S10       30.34S WCI   0
$$

KSZ061>065-074>080-084>089-281100-
SOUTHWEST KANSAS

CITY           SKY/WX    TMP DP  RH WIND       PRES   REMARKS
DODGE CITY     LGT SNOW  12   7  80 SE13      30.25F WCI  -3
ELKHART          N/A     13   6  74 S15         N/A  WCI  -3
GARDEN CITY    LGT SNOW  10   7  87 SE14      30.18F FOG     WCI  -6
GREAT BEND     CLOUDY    16   9  73 S8        30.35F
LIBERAL        CLOUDY    14   9  79 SE12      30.20F WCI   0
$$

KSZ066>073-081>083-090>101-281100-
SOUTHEAST KANSAS

CITY           SKY/WX    TMP DP  RH WIND       PRES   REMARKS
CHANUTE        CLOUDY    19  11  70 E5        30.47F
COFFEYVILLE    CLOUDY    20  14  77 E7        30.48F
HUTCHINSON     CLOUDY    16  10  77 S13       30.40F WCI   2
MEDICINE LODGE   N/A     14  11  87 SE6       30.38F
NEWTON         CLOUDY    14   7  73 SE6       30.41F
PARSONS        CLOUDY    20  14  77 VRB5      30.48F
WICHITA INTL   CLOUDY    16  11  80 SE6       30.42S
WICHITA JABRA  CLOUDY    15  11  83 SE6       30.41F
WINFIELD       CLOUDY    17  12  80 SE9       30.45S
$$

KSZ007>012-019>026-033>040-048>060-102>105-281100-
NORTHEAST KANSAS

CITY           SKY/WX    TMP DP  RH WIND       PRES   REMARKS
CONCORDIA      CLEAR      7   5  91 SE3       30.41F
EMPORIA        CLOUDY    16   9  74 SE8       30.45F
LAWRENCE       CLOUDY    14   7  73 E5        30.51F
MANHATTAN      MOCLDY    11   8  88 CALM      30.47F
OLATHE IND     CLOUDY    16   8  71 E6        30.49F
OLATHE EXE     CLOUDY    16   7  67 E6        30.48F
SALINA         CLOUDY    15  10  80 SE8       30.43F
TOPEKA BILLARD CLEAR     13   5  70 CALM      30.50F
TOPEKA FORBES  CLEAR     12   6  77 E3        30.47F
$$


USA.gov is the U.S. government's official web portal to all federal, state and local government web resources and services.